Weather History for KMPO - October, 2012

Change the Weather History Date:

Tuesday, October 16, 2012

  Actual Average Record
Temperature  
Mean Temperature 42 °F 48 °F  
Max Temperature 51 °F 58 °F 79 °F (1947)
Min Temperature 32 °F 39 °F 20 °F (1907)
Degree Days  
Heating Degree Days 23 17  
Month to date heating degree days 232 236  
Since 1 July heating degree days 450 504  
Cooling Degree Days 0 0  
Month to date cooling degree days 0 0  
Year to date cooling degree days 453 313  
Moisture  
Dew Point 34 °F    
Average Humidity 69    
Maximum Humidity 89    
Minimum Humidity 48    
Precipitation  
Precipitation 0.00 in 0.13 in 1.73 in (2002)
Month to date precipitation 1.63 2.31  
Year to date precipitation 35.34 38.65  
Sea Level Pressure  
Sea Level Pressure 29.81 in    
Wind  
Wind Speed 12 mph (NW)    
Max Wind Speed 25 mph    
Max Gust Speed 38 mph    
Visibility 10 miles    
Events      
T = Trace of Precipitation, MM = Missing Value Source: NWS Daily Summary

Daily Weather History Graph

Daily Weather History Graph

Search for Another Location

Airport or City:

Trip Planner

Search our weather history database for the weather conditions in past years. The results will help you decide how hot, cold, wet, or windy it might be!

Date:

Astronomy

Oct. 16, 2012 Rise Set
Actual Time 7:14 AM EDT 6:18 PM EDT
Civil Twilight 6:46 AM EDT 6:46 PM EDT
Nautical Twilight 6:14 AM EDT 7:18 PM EDT
Astronomical Twilight 5:43 AM EDT 7:50 PM EDT
Moon 8:35 AM EDT (10/16) 6:59 PM EDT (10/16)
Length of Visible Light 11h 59m
Length of Day
11h 03m
New Moon, 2% of the Moon is Illuminated
Oct 16
New Moon
Oct 21
First Quarter
Oct 29
Full
Nov 6
Last Quarter
Nov 13
New

Hourly Weather History & Observations

Time (EDT) Temp. Windchill Dew Point Humidity Pressure Visibility Wind Dir Wind Speed Gust Speed Precip Events Conditions
12:53 AM 46.9 °F - 41.0 °F 80% 29.73 in 10.0 mi NW 10.4 mph 20.7 mph N/A   Clear
1:53 AM 46.9 °F - 39.9 °F 77% 29.74 in 10.0 mi WNW 10.4 mph - N/A   Overcast
2:53 AM 46.9 °F - 39.0 °F 74% 29.73 in 10.0 mi NW 11.5 mph - N/A   Overcast
3:08 AM 46.4 °F 40.7 °F 39.2 °F 76% 29.72 in 10.0 mi NW 12.7 mph 20.7 mph N/A   Overcast
3:30 AM 46.4 °F 40.4 °F 37.4 °F 71% 29.71 in 10.0 mi NW 13.8 mph 21.9 mph N/A   Overcast
3:53 AM 46.0 °F 40.6 °F 37.0 °F 71% 29.71 in 10.0 mi NW 11.5 mph 20.7 mph N/A   Overcast
4:53 AM 45.0 °F 37.6 °F 35.1 °F 68% 29.73 in 10.0 mi NNW 17.3 mph 29.9 mph N/A   Overcast
5:53 AM 43.0 °F 34.5 °F 33.1 °F 68% 29.75 in 10.0 mi NW 19.6 mph 32.2 mph N/A   Overcast
6:53 AM 43.0 °F 35.4 °F 34.0 °F 71% 29.78 in 10.0 mi NW 16.1 mph 26.5 mph N/A   Overcast
7:31 AM 42.8 °F 34.5 °F 32.0 °F 66% 29.77 in 10.0 mi NW 18.4 mph 29.9 mph N/A   Scattered Clouds
8:31 AM 42.8 °F 34.8 °F 33.8 °F 70% 29.79 in 10.0 mi NW 17.3 mph 31.1 mph N/A   Scattered Clouds
8:53 AM 44.1 °F 35.9 °F 33.1 °F 65% 29.81 in 10.0 mi NW 19.6 mph 31.1 mph N/A   Partly Cloudy
9:40 AM 44.6 °F 38.1 °F 33.8 °F 66% 29.81 in 10.0 mi NW 13.8 mph 34.5 mph N/A   Mostly Cloudy
9:53 AM 44.1 °F 36.5 °F 33.1 °F 65% 29.83 in 10.0 mi NNW 17.3 mph 34.5 mph N/A   Mostly Cloudy
10:53 AM 44.1 °F 37.4 °F 33.1 °F 65% 29.84 in 10.0 mi NNW 13.8 mph 29.9 mph N/A   Overcast
11:53 AM 45.0 °F 38.5 °F 34.0 °F 65% 29.86 in 10.0 mi WNW 13.8 mph 27.6 mph N/A   Overcast
12:53 PM 46.9 °F - 34.0 °F 61% 29.85 in 10.0 mi NW 19.6 mph 29.9 mph N/A   Overcast
1:44 PM 48.2 °F - 33.8 °F 58% 29.82 in 10.0 mi NW 17.3 mph 25.3 mph N/A   Scattered Clouds
1:53 PM 50.0 °F - 34.0 °F 54% 29.83 in 10.0 mi NW 19.6 mph 26.5 mph N/A   Mostly Cloudy
2:53 PM 50.0 °F - 33.1 °F 52% 29.83 in 10.0 mi NW 11.5 mph 23.0 mph N/A   Clear
3:53 PM 51.1 °F - 32.0 °F 48% 29.83 in 10.0 mi NW 12.7 mph 20.7 mph N/A   Clear
4:53 PM 48.9 °F - 30.0 °F 48% 29.83 in 10.0 mi NW 16.1 mph 24.2 mph N/A   Clear
5:53 PM 48.0 °F - 30.9 °F 52% 29.85 in 10.0 mi WNW 8.1 mph - N/A   Clear
6:53 PM 45.0 °F 42.6 °F 32.0 °F 60% 29.86 in 10.0 mi NNW 4.6 mph - N/A   Clear
7:53 PM 39.9 °F - 32.0 °F 73% 29.89 in 10.0 mi Calm Calm - N/A   Clear
8:53 PM 37.9 °F - 32.0 °F 79% 29.91 in 10.0 mi Calm Calm - N/A   Clear
9:53 PM 37.9 °F 33.5 °F 33.1 °F 83% 29.92 in 10.0 mi NW 5.8 mph - N/A   Clear
10:53 PM 35.1 °F 30.1 °F 32.0 °F 89% 29.93 in 10.0 mi NW 5.8 mph - N/A   Clear
11:53 PM 34.0 °F 29.8 °F 30.9 °F 89% 29.94 in 10.0 mi NNW 4.6 mph - N/A   Clear